Skip Page Navigation
NASA JPL Caltech
NASA Logo - Jet Propulsion Laboratory + View the NASA Portal
+ Center for Near-Earth Object Studies
JPL Home Earth Solar System Stars & Galaxies Technology
JPL Solar System Dynamics
BODIES ORBITS EPHEMERIDES TOOLS PHYSICAL DATA DISCOVERY FAQ SITE MAP
JPL Small-Body Database Browser
Search: [ help ]  
216102 (2006 RS24)
Classification: Main-belt Asteroid          SPK-ID: 2216102
Ephemeris | Orbit Diagram | Orbital Elements | Mission Design | Physical Parameters | Discovery Circumstances | Close-Approach Data ]

[ show orbit diagram ]
Orbital Elements at Epoch 2459200.5 (2020-Dec-17.0) TDB
Reference: JPL 12 (heliocentric ecliptic J2000)
 Element Value Uncertainty (1-sigma)   Units 
e .0987963494855453 5.8249e-08  
a 2.332034281994155 1.8333e-08 au
q 2.101637808057988 1.4145e-07 au
i 3.498400465913387 6.9243e-06 deg
node 271.7205662875855 0.00011514 deg
peri 48.3297092182905 0.00012119 deg
M 17.46492347710774 3.7468e-05 deg
tp 2459137.394820136291
(2020-Oct-14.89482014)
0.00013528 TDB
period 1300.770929841907
3.56
1.5339e-05
4.2e-08
d
yr
n .2767589525111495 3.2636e-09 deg/d
Q 2.562430755930322 2.0144e-08 au
  Orbit Determination Parameters
   # obs. used (total)      149  
   data-arc span      6081 days (16.65 yr)  
   first obs. used      2003-11-19  
   last obs. used      2020-07-13  
   planetary ephem.      DE441  
   SB-pert. ephem.      SB441-N16  
   condition code      0  
   norm. resid. RMS      .50893  
   source      ORB  
   producer      Otto Matic  
   solution date      2021-Apr-13 23:53:27  

Additional Information
 Earth MOID = 1.08844 au 
 Jupiter MOID = 2.66583 au 
 T_jup = 3.561 
[ show covariance matrix ]

Ephemeris | Orbit Diagram | Orbital Elements | Mission Design | Physical Parameters | Discovery Circumstances | Close-Approach Data ]

Physical Parameter Table
Parameter Symbol Value Units Sigma Reference Notes
absolute magnitude H 17.70   n/a E2021B55  

216102 (2006 RS24)          Discovered 2006-Sep-14 by Spacewatch at Kitt Peak
Reference: 20090607/Numbers.arcLast Updated: 2009-06-08

[ show close-approach data ]
Ephemeris | Orbit Diagram | Orbital Elements | Mission Design | Physical Parameters | Discovery Circumstances | Close-Approach Data ]
ABOUT SSD CREDITS/AWARDS PRIVACY/COPYRIGHT GLOSSARY LINKS
FirstGov 2021-Jun-19 22:54 UT
(server date/time)  
NASA Home Page
Site Manager:   Ryan S. Park
Webmaster  Alan B. Chamberlin